Ortonville, MN

9:26 PM CDT on April 20, 2018 (GMT -0500)
Ortonville Municipal-Martinson

Weather History for KVVV - October, 2012

Change the Weather History Date:

Saturday, October 6, 2012

  Actual Average (KAQP) Record (KAQP)
Temperature  
Mean Temperature 36 °F -  
Max Temperature 42 °F 62 °F 86 °F (2007)
Min Temperature 30 °F 37 °F 19 °F (2001)
Degree Days  
Heating Degree Days 29    
Moisture  
Dew Point 24 °F    
Average Humidity 63    
Maximum Humidity 81    
Minimum Humidity 42    
Precipitation  
Precipitation 0.00 in - - ()
Sea Level Pressure  
Sea Level Pressure 30.30 in    
Wind  
Wind Speed 12 mph (NNW)    
Max Wind Speed 17 mph    
Max Gust Speed 25 mph    
Visibility 10 miles    
Events      
Averages and records for this station are not official NWS values.
T = Trace of Precipitation, MM = Missing Value Source: NWS Daily Summary

Daily Weather History Graph

Daily Weather History Graph

Search for Another Location

Airport or City:

Astronomy

Oct. 06, 2012 Rise Set
Actual Time 7:30 AM CDT 6:55 PM CDT
Civil Twilight 7:01 AM CDT 7:25 PM CDT
Nautical Twilight 6:27 AM CDT 7:59 PM CDT
Astronomical Twilight 5:52 AM CDT 8:33 PM CDT
Moon 10:59 PM CDT (10/6) 1:39 PM CDT (10/6)
Length of Visible Light 12h 23m
Length of Day
11h 24m
Waning Gibbous, 65% of the Moon is Illuminated
Oct 6
Waning Gibbous
Oct 8
Last Quarter
Oct 15
New
Oct 21
First Quarter
Oct 29
Full

Hourly Weather History & Observations

Time (CDT) Temp. Windchill Dew Point Humidity Pressure Visibility Wind Dir Wind Speed Gust Speed Precip Events Conditions
12:01 AM 35.6 °F 25.9 °F 28.4 °F 75% 30.26 in 10.0 mi NW 16.1 mph 23.0 mph N/A   Mostly Cloudy
12:21 AM 35.6 °F 27.1 °F 28.4 °F 75% 30.26 in 10.0 mi NW 12.7 mph 19.6 mph N/A   Mostly Cloudy
12:41 AM 35.6 °F 26.2 °F 26.6 °F 70% 30.26 in 10.0 mi NW 15.0 mph 24.2 mph N/A   Overcast
12:50 AM 35.6 °F 25.9 °F 26.6 °F 70% 30.26 in 10.0 mi NW 16.1 mph - N/A   Overcast
1:01 AM 35.6 °F 25.9 °F 26.6 °F 70% 30.26 in 10.0 mi NW 16.1 mph 21.9 mph N/A   Overcast
1:21 AM 35.6 °F 26.2 °F 26.6 °F 70% 30.26 in 10.0 mi NNW 15.0 mph 24.2 mph N/A   Overcast
2:21 AM 33.8 °F 24.3 °F 26.6 °F 75% 30.26 in 10.0 mi NW 13.8 mph 20.7 mph N/A   Overcast
2:41 AM 33.8 °F 24.8 °F 26.6 °F 75% 30.26 in 10.0 mi NNW 12.7 mph - N/A   Overcast
3:01 AM 33.8 °F 24.8 °F 28.4 °F 81% 30.26 in 10.0 mi NW 12.7 mph 19.6 mph N/A   Overcast
3:21 AM 33.8 °F 23.9 °F 26.6 °F 75% 30.27 in 10.0 mi NNW 15.0 mph 20.7 mph N/A   Overcast
3:41 AM 33.8 °F 23.9 °F 28.4 °F 81% 30.27 in 10.0 mi NNW 15.0 mph 19.6 mph N/A   Scattered Clouds
4:01 AM 33.8 °F 24.8 °F 28.4 °F 81% 30.27 in 10.0 mi NNW 12.7 mph - N/A   Mostly Cloudy
4:03 AM 33.8 °F 25.8 °F 28.4 °F 81% 30.27 in 10.0 mi NNW 10.4 mph - N/A   Mostly Cloudy
4:19 AM 33.8 °F 25.8 °F 28.4 °F 81% 30.27 in 10.0 mi NNW 10.4 mph - N/A   Overcast
4:21 AM 33.8 °F 24.8 °F 28.4 °F 81% 30.27 in 10.0 mi NW 12.7 mph - N/A   Mostly Cloudy
4:59 AM 33.8 °F 24.8 °F 26.6 °F 75% 30.27 in 10.0 mi NNW 12.7 mph - N/A   Overcast
5:01 AM 33.8 °F 24.8 °F 26.6 °F 75% 30.28 in 10.0 mi NNW 12.7 mph - N/A   Overcast
5:19 AM 33.8 °F 24.3 °F 26.6 °F 75% 30.28 in 10.0 mi NNW 13.8 mph 17.3 mph N/A   Overcast
5:21 AM 33.8 °F 25.3 °F 26.6 °F 75% 30.28 in 10.0 mi NW 11.5 mph 17.3 mph N/A   Overcast
6:01 AM 33.8 °F 24.3 °F 26.6 °F 75% 30.29 in 10.0 mi NNW 13.8 mph 18.4 mph N/A   Overcast
6:08 AM 33.8 °F 24.3 °F 26.6 °F 75% 30.29 in 10.0 mi NNW 13.8 mph 18.4 mph N/A   Overcast
6:21 AM 33.8 °F 25.8 °F 26.6 °F 75% 30.29 in 10.0 mi NNW 10.4 mph - N/A   Overcast
6:41 AM 33.8 °F 23.2 °F 26.6 °F 75% 30.30 in 10.0 mi NNW 17.3 mph 21.9 mph N/A   Overcast
7:02 AM 33.8 °F 23.2 °F 24.8 °F 70% 30.30 in 10.0 mi North 17.3 mph 20.7 mph N/A   Overcast
7:24 AM 32.0 °F 20.8 °F 24.8 °F 75% 30.31 in 10.0 mi NNW 17.3 mph 25.3 mph N/A   Mostly Cloudy
7:44 AM 32.0 °F 22.1 °F 24.8 °F 75% 30.32 in 10.0 mi North 13.8 mph - N/A   Overcast
8:04 AM 33.8 °F 25.8 °F 24.8 °F 70% 30.33 in 10.0 mi North 10.4 mph - N/A   Overcast
8:24 AM 33.8 °F 24.8 °F 24.8 °F 70% 30.33 in 10.0 mi NNW 12.7 mph 18.4 mph N/A   Overcast
8:43 AM 33.8 °F 23.5 °F 24.8 °F 70% 30.34 in 10.0 mi North 16.1 mph 19.6 mph N/A   Overcast
9:04 AM 33.8 °F 24.3 °F 24.8 °F 70% 30.35 in 10.0 mi North 13.8 mph - N/A   Overcast
9:24 AM 33.8 °F 24.3 °F 24.8 °F 70% 30.36 in 10.0 mi North 13.8 mph 20.7 mph N/A   Overcast
9:44 AM 33.8 °F 24.8 °F 24.8 °F 70% 30.36 in 10.0 mi NNW 12.7 mph - N/A   Overcast
10:04 AM 33.8 °F 24.3 °F 24.8 °F 70% 30.36 in 10.0 mi NNW 13.8 mph 19.6 mph N/A   Overcast
10:23 AM 33.8 °F 24.8 °F 24.8 °F 70% 30.37 in 10.0 mi NNW 12.7 mph - N/A   Overcast
10:44 AM 33.8 °F 23.9 °F 24.8 °F 70% 30.37 in 10.0 mi NNW 15.0 mph - N/A   Overcast
11:04 AM 35.6 °F 27.5 °F 23.0 °F 60% 30.37 in 10.0 mi NNW 11.5 mph - N/A   Overcast
11:44 AM 37.4 °F 28.9 °F 23.0 °F 56% 30.36 in 10.0 mi NNW 13.8 mph - N/A   Overcast
12:03 PM 37.4 °F 29.3 °F 23.0 °F 56% 30.36 in 10.0 mi NNW 12.7 mph 20.7 mph N/A   Overcast
12:24 PM 37.4 °F 28.9 °F 23.0 °F 56% 30.36 in 10.0 mi North 13.8 mph 20.7 mph N/A   Overcast
12:44 PM 37.4 °F 28.9 °F 23.0 °F 56% 30.36 in 10.0 mi North 13.8 mph - N/A   Overcast
1:04 PM 37.4 °F 29.8 °F 21.2 °F 52% 30.36 in 10.0 mi NNW 11.5 mph 17.3 mph N/A   Overcast
1:24 PM 37.4 °F 31.4 °F 23.0 °F 56% 30.36 in 10.0 mi North 8.1 mph - N/A   Overcast
1:43 PM 37.4 °F 29.8 °F 23.0 °F 56% 30.35 in 10.0 mi North 11.5 mph 16.1 mph N/A   Overcast
2:04 PM 39.2 °F 31.2 °F 23.0 °F 52% 30.34 in 10.0 mi North 13.8 mph - N/A   Overcast
2:24 PM 39.2 °F 33.0 °F 21.2 °F 49% 30.33 in 10.0 mi North 9.2 mph 19.6 mph N/A   Overcast
2:44 PM 39.2 °F 33.0 °F 21.2 °F 49% 30.32 in 10.0 mi North 9.2 mph - N/A   Overcast
3:04 PM 41.0 °F 35.2 °F 21.2 °F 45% 30.31 in 10.0 mi NNE 9.2 mph 16.1 mph N/A   Scattered Clouds
3:23 PM 41.0 °F 34.3 °F 21.2 °F 45% 30.30 in 10.0 mi North 11.5 mph - N/A   Scattered Clouds
3:44 PM 42.8 °F 37.5 °F 21.2 °F 42% 30.30 in 10.0 mi NNW 9.2 mph - N/A   Scattered Clouds
4:04 PM 42.8 °F 36.6 °F 21.2 °F 42% 30.30 in 10.0 mi North 11.5 mph 17.3 mph N/A   Clear
4:23 PM 42.8 °F 38.0 °F 21.2 °F 42% 30.29 in 10.0 mi NNW 8.1 mph - N/A   Clear
4:44 PM 42.8 °F 36.6 °F 21.2 °F 42% 30.28 in 10.0 mi NNW 11.5 mph - N/A   Clear
5:04 PM 42.8 °F 37.5 °F 21.2 °F 42% 30.28 in 10.0 mi North 9.2 mph - N/A   Clear
5:24 PM 42.8 °F 38.6 °F 21.2 °F 42% 30.27 in 10.0 mi North 6.9 mph - N/A   Clear
5:44 PM 42.8 °F 38.6 °F 21.2 °F 42% 30.27 in 10.0 mi NNE 6.9 mph - N/A   Clear
6:03 PM 42.8 °F 40.1 °F 21.2 °F 42% 30.27 in 10.0 mi North 4.6 mph - N/A   Clear
6:24 PM 41.0 °F 38.0 °F 21.2 °F 45% 30.27 in 10.0 mi North 4.6 mph - N/A   Clear
6:44 PM 39.2 °F - 21.2 °F 49% 30.27 in 10.0 mi Calm Calm - N/A   Clear
7:03 PM 37.4 °F - 21.2 °F 52% 30.27 in 10.0 mi Calm Calm - N/A   Clear
7:43 PM 35.6 °F - 21.2 °F 56% 30.27 in 10.0 mi Calm Calm - N/A   Clear
8:04 PM 33.8 °F - 21.2 °F 60% 30.27 in 10.0 mi Calm Calm - N/A   Clear
8:24 PM 35.6 °F - 21.2 °F 56% 30.27 in 10.0 mi Calm Calm - N/A   Clear
8:43 PM 33.8 °F 30.8 °F 21.2 °F 60% 30.27 in 10.0 mi SSW 3.5 mph - N/A   Clear
9:04 PM 33.8 °F 30.8 °F 21.2 °F 60% 30.27 in 10.0 mi SSW 3.5 mph - N/A   Clear
9:24 PM 33.8 °F 30.8 °F 21.2 °F 60% 30.26 in 10.0 mi SSW 3.5 mph - N/A   Clear
9:44 PM 33.8 °F 30.8 °F 21.2 °F 60% 30.26 in 10.0 mi SSW 3.5 mph - N/A   Clear
10:04 PM 32.0 °F 27.5 °F 21.2 °F 64% 30.26 in 10.0 mi SSW 4.6 mph - N/A   Clear
10:23 PM 30.2 °F 25.4 °F 21.2 °F 69% 30.26 in 10.0 mi SSW 4.6 mph - N/A   Clear
10:44 PM 30.2 °F 25.4 °F 19.4 °F 64% 30.25 in 10.0 mi SSW 4.6 mph - N/A   Clear
11:04 PM 30.2 °F 25.4 °F 19.4 °F 64% 30.25 in 10.0 mi SSW 4.6 mph - N/A   Clear
11:23 PM 30.2 °F 25.4 °F 19.4 °F 64% 30.24 in 10.0 mi SSW 4.6 mph - N/A   Clear